Year,Month,Day,Hour,Minute,Value (Times are PST for windgust in km/hr)
2006,02,05,00,00,35.40
2006,02,05,00,01,29.00
2006,02,05,00,02,38.60
2006,02,05,00,03,35.40
2006,02,05,00,04,35.40
2006,02,05,00,05,22.50
2006,02,05,00,06,32.20
2006,02,05,00,07,30.60
2006,02,05,00,08,27.40
2006,02,05,00,09,27.40
2006,02,05,00,10,25.70
2006,02,05,00,11,24.20
2006,02,05,00,12,27.40
2006,02,05,00,13,25.70
2006,02,05,00,14,20.90
2006,02,05,00,15,29.00
2006,02,05,00,16,19.30
2006,02,05,00,17,27.40
2006,02,05,00,18,17.70
2006,02,05,00,19,29.00
2006,02,05,00,20,14.50
2006,02,05,00,21,8.10
2006,02,05,00,22,29.00
2006,02,05,00,23,22.50
2006,02,05,00,24,25.70
2006,02,05,00,25,27.40
2006,02,05,00,26,35.40
2006,02,05,00,27,29.00
2006,02,05,00,28,16.10
2006,02,05,00,29,20.90
2006,02,05,00,30,19.30
2006,02,05,00,31,24.20
2006,02,05,00,32,20.90
2006,02,05,00,33,20.90
2006,02,05,00,34,25.70
2006,02,05,00,35,19.30
2006,02,05,00,36,24.20
2006,02,05,00,37,16.10
2006,02,05,00,38,19.30
2006,02,05,00,39,25.70
2006,02,05,00,40,29.00
2006,02,05,00,41,25.70
2006,02,05,00,42,33.80
2006,02,05,00,43,30.60
2006,02,05,00,44,24.20
2006,02,05,00,45,27.40
2006,02,05,00,46,19.30
2006,02,05,00,47,37.00
2006,02,05,00,48,29.00
2006,02,05,00,49,17.70
2006,02,05,00,50,24.20
2006,02,05,00,51,41.80
2006,02,05,00,52,32.20
2006,02,05,00,53,20.90
2006,02,05,00,54,25.70
2006,02,05,00,55,27.40
2006,02,05,00,56,33.80
2006,02,05,00,57,25.70
2006,02,05,00,58,29.00
2006,02,05,00,59,25.70
2006,02,05,01,00,16.10
2006,02,05,01,01,17.70
2006,02,05,01,02,20.90
2006,02,05,01,03,22.50
2006,02,05,01,04,9.60
2006,02,05,01,05,11.30
2006,02,05,01,06,12.90
2006,02,05,01,07,20.90
2006,02,05,01,08,25.70
2006,02,05,01,09,38.60
2006,02,05,01,10,29.00
2006,02,05,01,11,29.00
2006,02,05,01,12,27.40
2006,02,05,01,13,25.70
2006,02,05,01,14,20.90
2006,02,05,01,15,25.70
2006,02,05,01,16,38.60
2006,02,05,01,17,33.80
2006,02,05,01,18,24.20
2006,02,05,01,19,24.20
2006,02,05,01,20,27.40
2006,02,05,01,21,22.50
2006,02,05,01,22,20.90
2006,02,05,01,23,27.40
2006,02,05,01,24,29.00
2006,02,05,01,25,27.40
2006,02,05,01,26,24.20
2006,02,05,01,27,27.40
2006,02,05,01,28,22.50
2006,02,05,01,29,22.50
2006,02,05,01,30,27.40
2006,02,05,01,31,22.50
2006,02,05,01,32,19.30
2006,02,05,01,33,25.70
2006,02,05,01,34,27.40
2006,02,05,01,35,22.50
2006,02,05,01,36,19.30
2006,02,05,01,37,19.30
2006,02,05,01,38,32.20
2006,02,05,01,39,22.50
2006,02,05,01,40,17.70
2006,02,05,01,41,25.70
2006,02,05,01,42,17.70
2006,02,05,01,43,20.90
2006,02,05,01,44,22.50
2006,02,05,01,45,25.70
2006,02,05,01,46,16.10
2006,02,05,01,47,22.50
2006,02,05,01,48,19.30
2006,02,05,01,49,19.30
2006,02,05,01,50,20.90
2006,02,05,01,51,19.30
2006,02,05,01,52,14.50
2006,02,05,01,53,14.50
2006,02,05,01,54,12.90
2006,02,05,01,55,22.50
2006,02,05,01,56,17.70
2006,02,05,01,57,17.70
2006,02,05,01,58,14.50
2006,02,05,01,59,20.90
2006,02,05,02,00,20.90
2006,02,05,02,01,20.90
2006,02,05,02,02,20.90
2006,02,05,02,03,16.10
2006,02,05,02,04,24.20
2006,02,05,02,05,17.70
2006,02,05,02,06,16.10
2006,02,05,02,07,27.40
2006,02,05,02,08,16.10
2006,02,05,02,09,24.20
2006,02,05,02,10,30.60
2006,02,05,02,11,27.40
2006,02,05,02,12,27.40
2006,02,05,02,13,24.20
2006,02,05,02,14,19.30
2006,02,05,02,15,17.70
2006,02,05,02,16,17.70
2006,02,05,02,17,17.70
2006,02,05,02,18,16.10
2006,02,05,02,19,11.30
2006,02,05,02,20,22.50
2006,02,05,02,21,22.50
2006,02,05,02,22,16.10
2006,02,05,02,23,24.20
2006,02,05,02,24,17.70
2006,02,05,02,25,19.30
2006,02,05,02,26,17.70
2006,02,05,02,27,14.50
2006,02,05,02,28,14.50
2006,02,05,02,29,16.10
2006,02,05,02,30,11.30
2006,02,05,02,31,9.60
2006,02,05,02,32,8.10
2006,02,05,02,33,8.10
2006,02,05,02,34,20.90
2006,02,05,02,35,11.30
2006,02,05,02,36,16.10
2006,02,05,02,37,11.30
2006,02,05,02,38,19.30
2006,02,05,02,39,16.10
2006,02,05,02,40,19.30
2006,02,05,02,41,19.30
2006,02,05,02,42,17.70
2006,02,05,02,43,14.50
2006,02,05,02,44,17.70
2006,02,05,02,45,20.90
2006,02,05,02,46,19.30
2006,02,05,02,47,17.70
2006,02,05,02,48,9.60
2006,02,05,02,49,11.30
2006,02,05,02,50,17.70
2006,02,05,02,51,11.30
2006,02,05,02,52,19.30
2006,02,05,02,53,20.90
2006,02,05,02,54,16.10
2006,02,05,02,55,19.30
2006,02,05,02,56,16.10
2006,02,05,02,57,14.50
2006,02,05,02,58,14.50
2006,02,05,02,59,11.30
2006,02,05,03,00,11.30
2006,02,05,03,01,8.10
2006,02,05,03,02,8.10
2006,02,05,03,03,11.30
2006,02,05,03,04,12.90
2006,02,05,03,05,12.90
2006,02,05,03,06,11.30
2006,02,05,03,07,8.10
2006,02,05,03,08,9.60
2006,02,05,03,09,8.10
2006,02,05,03,10,6.40
2006,02,05,03,11,11.30
2006,02,05,03,12,11.30
2006,02,05,03,13,6.40
2006,02,05,03,14,9.60
2006,02,05,03,15,4.80
2006,02,05,03,16,3.20
2006,02,05,03,17,6.40
2006,02,05,03,18,6.40
2006,02,05,03,19,6.40
2006,02,05,03,20,3.20
2006,02,05,03,21,1.60
2006,02,05,03,22,3.20
2006,02,05,03,23,6.40
2006,02,05,03,24,4.80
2006,02,05,03,25,4.80
2006,02,05,03,26,6.40
2006,02,05,03,27,4.80
2006,02,05,03,28,1.60
2006,02,05,03,29,4.80
2006,02,05,03,30,3.20
2006,02,05,03,31,3.20
2006,02,05,03,32,3.20
2006,02,05,03,33,3.20
2006,02,05,03,34,0.00
2006,02,05,03,35,1.60
2006,02,05,03,36,3.20
2006,02,05,03,37,3.20
2006,02,05,03,38,4.80
2006,02,05,03,39,3.20
2006,02,05,03,40,3.20
2006,02,05,03,41,6.40
2006,02,05,03,42,4.80
2006,02,05,03,43,4.80
2006,02,05,03,44,6.40
2006,02,05,03,45,4.80
2006,02,05,03,46,6.40
2006,02,05,03,47,6.40
2006,02,05,03,48,8.10
2006,02,05,03,49,6.40
2006,02,05,03,50,6.40
2006,02,05,03,51,4.80
2006,02,05,03,52,6.40
2006,02,05,03,53,4.80
2006,02,05,03,54,8.10
2006,02,05,03,55,4.80
2006,02,05,03,56,6.40
2006,02,05,03,57,3.20
2006,02,05,03,58,8.10
2006,02,05,03,59,4.80
2006,02,05,04,00,11.30
2006,02,05,04,01,8.10
2006,02,05,04,02,6.40
2006,02,05,04,03,4.80
2006,02,05,04,04,6.40
2006,02,05,04,05,6.40
2006,02,05,04,06,9.60
2006,02,05,04,07,9.60
2006,02,05,04,08,9.60
2006,02,05,04,09,11.30
2006,02,05,04,10,9.60
2006,02,05,04,11,9.60
2006,02,05,04,12,16.10
2006,02,05,04,13,16.10
2006,02,05,04,14,14.50
2006,02,05,04,15,11.30
2006,02,05,04,16,19.30
2006,02,05,04,17,19.30
2006,02,05,04,18,11.30
2006,02,05,04,19,16.10
2006,02,05,04,20,17.70
2006,02,05,04,21,9.60
2006,02,05,04,22,9.60
2006,02,05,04,23,14.50
2006,02,05,04,24,11.30
2006,02,05,04,25,12.90
2006,02,05,04,26,16.10
2006,02,05,04,27,16.10
2006,02,05,04,28,20.90
2006,02,05,04,29,16.10
2006,02,05,04,30,14.50
2006,02,05,04,31,14.50
2006,02,05,04,32,14.50
2006,02,05,04,33,16.10
2006,02,05,04,34,14.50
2006,02,05,04,35,14.50
2006,02,05,04,36,14.50
2006,02,05,04,37,9.60
2006,02,05,04,38,8.10
2006,02,05,04,39,14.50
2006,02,05,04,40,11.30
2006,02,05,04,41,9.60
2006,02,05,04,42,25.70
2006,02,05,04,43,24.20
2006,02,05,04,44,9.60
2006,02,05,04,45,9.60
2006,02,05,04,46,16.10
2006,02,05,04,47,22.50
2006,02,05,04,48,16.10
2006,02,05,04,49,14.50
2006,02,05,04,50,14.50
2006,02,05,04,51,20.90
2006,02,05,04,52,19.30
2006,02,05,04,53,17.70
2006,02,05,04,54,17.70
2006,02,05,04,55,14.50
2006,02,05,04,56,11.30
2006,02,05,04,57,11.30
2006,02,05,04,58,11.30
2006,02,05,04,59,11.30
2006,02,05,05,00,17.70
2006,02,05,05,01,14.50
2006,02,05,05,02,11.30
2006,02,05,05,03,11.30
2006,02,05,05,04,19.30
2006,02,05,05,05,12.90
2006,02,05,05,06,14.50
2006,02,05,05,07,14.50
2006,02,05,05,08,11.30
2006,02,05,05,09,11.30
2006,02,05,05,10,8.10
2006,02,05,05,11,14.50
2006,02,05,05,12,16.10
2006,02,05,05,13,14.50
2006,02,05,05,14,14.50
2006,02,05,05,15,14.50
2006,02,05,05,16,9.60
2006,02,05,05,17,14.50
2006,02,05,05,18,11.30
2006,02,05,05,19,17.70
2006,02,05,05,20,16.10
2006,02,05,05,21,9.60
2006,02,05,05,22,11.30
2006,02,05,05,23,14.50
2006,02,05,05,24,9.60
2006,02,05,05,25,8.10
2006,02,05,05,26,9.60
2006,02,05,05,27,12.90
2006,02,05,05,28,11.30
2006,02,05,05,29,12.90
2006,02,05,05,30,8.10
2006,02,05,05,31,9.60
2006,02,05,05,32,14.50
2006,02,05,05,33,12.90
2006,02,05,05,34,14.50
2006,02,05,05,35,14.50
2006,02,05,05,36,14.50
2006,02,05,05,37,9.60
2006,02,05,05,38,14.50
2006,02,05,05,39,16.10
2006,02,05,05,40,17.70
2006,02,05,05,41,14.50
2006,02,05,05,42,11.30
2006,02,05,05,43,9.60
2006,02,05,05,44,16.10
2006,02,05,05,45,24.20
2006,02,05,05,46,14.50
2006,02,05,05,47,19.30
2006,02,05,05,48,19.30
2006,02,05,05,49,16.10
2006,02,05,05,50,12.90
2006,02,05,05,51,17.70
2006,02,05,05,52,16.10
2006,02,05,05,53,11.30
2006,02,05,05,54,9.60
2006,02,05,05,55,22.50
2006,02,05,05,56,11.30
2006,02,05,05,57,9.60
2006,02,05,05,58,16.10
2006,02,05,05,59,19.30
2006,02,05,06,00,14.50
2006,02,05,06,01,8.10
2006,02,05,06,02,11.30
2006,02,05,06,03,9.60
2006,02,05,06,04,16.10
2006,02,05,06,05,17.70
2006,02,05,06,06,20.90
2006,02,05,06,07,20.90
2006,02,05,06,08,20.90
2006,02,05,06,09,16.10
2006,02,05,06,10,11.30
2006,02,05,06,11,17.70
2006,02,05,06,12,19.30
2006,02,05,06,13,20.90
2006,02,05,06,14,14.50
2006,02,05,06,15,16.10
2006,02,05,06,16,19.30
2006,02,05,06,17,22.50
2006,02,05,06,18,29.00
2006,02,05,06,19,24.20
2006,02,05,06,20,25.70
2006,02,05,06,21,20.90
2006,02,05,06,22,19.30
2006,02,05,06,23,17.70
2006,02,05,06,24,17.70
2006,02,05,06,25,16.10
2006,02,05,06,26,14.50
2006,02,05,06,27,16.10
2006,02,05,06,28,11.30
2006,02,05,06,29,6.40
2006,02,05,06,30,9.60
2006,02,05,06,31,9.60
2006,02,05,06,32,12.90
2006,02,05,06,33,6.40
2006,02,05,06,34,9.60
2006,02,05,06,35,9.60
2006,02,05,06,36,11.30
2006,02,05,06,37,9.60
2006,02,05,06,38,9.60
2006,02,05,06,39,9.60
2006,02,05,06,40,11.30
2006,02,05,06,41,4.80
2006,02,05,06,42,6.40
2006,02,05,06,43,9.60
2006,02,05,06,44,6.40
2006,02,05,06,45,4.80
2006,02,05,06,46,6.40
2006,02,05,06,47,6.40
2006,02,05,06,48,8.10
2006,02,05,06,49,8.10
2006,02,05,06,50,6.40
2006,02,05,06,51,4.80
2006,02,05,06,52,4.80
2006,02,05,06,53,4.80
2006,02,05,06,54,4.80
2006,02,05,06,55,9.60
2006,02,05,06,56,9.60
2006,02,05,06,57,6.40
2006,02,05,06,58,8.10
2006,02,05,06,59,8.10
2006,02,05,07,00,6.40
2006,02,05,07,01,8.10
2006,02,05,07,02,6.40
2006,02,05,07,03,11.30
2006,02,05,07,04,11.30
2006,02,05,07,05,6.40
2006,02,05,07,06,8.10
2006,02,05,07,07,9.60
2006,02,05,07,08,9.60
2006,02,05,07,09,8.10
2006,02,05,07,10,8.10
2006,02,05,07,11,11.30
2006,02,05,07,12,8.10
2006,02,05,07,13,9.60
2006,02,05,07,14,6.40
2006,02,05,07,15,8.10
2006,02,05,07,16,11.30
2006,02,05,07,17,9.60
2006,02,05,07,18,8.10
2006,02,05,07,19,9.60
2006,02,05,07,20,9.60
2006,02,05,07,21,8.10
2006,02,05,07,22,6.40
2006,02,05,07,23,9.60
2006,02,05,07,24,9.60
2006,02,05,07,25,11.30
2006,02,05,07,26,8.10
2006,02,05,07,27,6.40
2006,02,05,07,28,6.40
2006,02,05,07,29,9.60
2006,02,05,07,30,6.40
2006,02,05,07,31,14.50
2006,02,05,07,32,9.60
2006,02,05,07,33,6.40
2006,02,05,07,34,6.40
2006,02,05,07,35,12.90
2006,02,05,07,36,9.60
2006,02,05,07,37,6.40
2006,02,05,07,38,9.60
2006,02,05,07,39,6.40
2006,02,05,07,40,6.40
2006,02,05,07,41,4.80
2006,02,05,07,42,4.80
2006,02,05,07,43,9.60
2006,02,05,07,44,9.60
2006,02,05,07,45,6.40
2006,02,05,07,46,8.10
2006,02,05,07,47,6.40
2006,02,05,07,48,8.10
2006,02,05,07,49,6.40
2006,02,05,07,50,9.60
2006,02,05,07,51,8.10
2006,02,05,07,52,6.40
2006,02,05,07,53,8.10
2006,02,05,07,54,6.40
2006,02,05,07,55,4.80
2006,02,05,07,56,6.40
2006,02,05,07,57,6.40
2006,02,05,07,58,4.80
2006,02,05,07,59,6.40
2006,02,05,08,00,6.40
2006,02,05,08,01,6.40
2006,02,05,08,02,4.80
2006,02,05,08,03,4.80
2006,02,05,08,04,6.40
2006,02,05,08,05,4.80
2006,02,05,08,06,3.20
2006,02,05,08,07,3.20
2006,02,05,08,08,3.20
2006,02,05,08,09,4.80
2006,02,05,08,10,4.80
2006,02,05,08,11,3.20
2006,02,05,08,12,4.80
2006,02,05,08,13,4.80
2006,02,05,08,14,6.40
2006,02,05,08,15,4.80
2006,02,05,08,16,4.80
2006,02,05,08,17,4.80
2006,02,05,08,18,4.80
2006,02,05,08,19,1.60
2006,02,05,08,20,1.60
2006,02,05,08,21,3.20
2006,02,05,08,22,4.80
2006,02,05,08,23,4.80
2006,02,05,08,24,4.80
2006,02,05,08,25,3.20
2006,02,05,08,26,4.80
2006,02,05,08,27,3.20
2006,02,05,08,28,3.20
2006,02,05,08,29,3.20
2006,02,05,08,30,4.80
2006,02,05,08,31,4.80
2006,02,05,08,32,4.80
2006,02,05,08,33,3.20
2006,02,05,08,34,4.80
2006,02,05,08,35,4.80
2006,02,05,08,36,4.80
2006,02,05,08,37,4.80
2006,02,05,08,38,6.40
2006,02,05,08,39,4.80
2006,02,05,08,40,4.80
2006,02,05,08,41,6.40
2006,02,05,08,42,4.80
2006,02,05,08,43,6.40
2006,02,05,08,44,6.40
2006,02,05,08,45,6.40
2006,02,05,08,46,6.40
2006,02,05,08,47,6.40
2006,02,05,08,48,8.10
2006,02,05,08,49,8.10
2006,02,05,08,50,8.10
2006,02,05,08,51,6.40
2006,02,05,08,52,6.40
2006,02,05,08,53,6.40
2006,02,05,08,54,8.10
2006,02,05,08,55,9.60
2006,02,05,08,56,8.10
2006,02,05,08,57,9.60
2006,02,05,08,58,9.60
2006,02,05,08,59,4.80
2006,02,05,09,00,9.60
2006,02,05,09,01,9.60
2006,02,05,09,02,8.10
2006,02,05,09,03,6.40
2006,02,05,09,04,8.10
2006,02,05,09,05,8.10
2006,02,05,09,06,11.30
2006,02,05,09,07,9.60
2006,02,05,09,08,9.60
2006,02,05,09,09,9.60
2006,02,05,09,10,9.60
2006,02,05,09,11,8.10
2006,02,05,09,12,11.30
2006,02,05,09,13,8.10
2006,02,05,09,14,8.10
2006,02,05,09,15,8.10
2006,02,05,09,16,8.10
2006,02,05,09,17,8.10
2006,02,05,09,18,8.10
2006,02,05,09,19,12.90
2006,02,05,09,20,9.60
2006,02,05,09,21,8.10
2006,02,05,09,22,8.10
2006,02,05,09,23,9.60
2006,02,05,09,24,11.30
2006,02,05,09,25,9.60
2006,02,05,09,26,12.90
2006,02,05,09,27,12.90
2006,02,05,09,28,11.30
2006,02,05,09,29,9.60
2006,02,05,09,30,11.30
2006,02,05,09,31,11.30
2006,02,05,09,32,11.30
2006,02,05,09,33,12.90
2006,02,05,09,34,8.10
2006,02,05,09,35,8.10
2006,02,05,09,36,9.60
2006,02,05,09,37,9.60
2006,02,05,09,38,9.60
2006,02,05,09,39,8.10
2006,02,05,09,40,8.10
2006,02,05,09,41,8.10
2006,02,05,09,42,14.50
2006,02,05,09,43,9.60
2006,02,05,09,44,4.80
2006,02,05,09,45,8.10
2006,02,05,09,46,8.10
2006,02,05,09,47,9.60
2006,02,05,09,48,11.30
2006,02,05,09,49,6.40
2006,02,05,09,50,3.20
2006,02,05,09,51,4.80
2006,02,05,09,52,6.40
2006,02,05,09,53,6.40
2006,02,05,09,54,3.20
2006,02,05,09,55,4.80
2006,02,05,09,56,6.40
2006,02,05,09,57,4.80
2006,02,05,09,58,3.20
2006,02,05,09,59,1.60
2006,02,05,10,00,0.00
2006,02,05,10,01,0.00
2006,02,05,10,02,0.00
2006,02,05,10,03,0.00
2006,02,05,10,04,0.00
2006,02,05,10,05,3.20
2006,02,05,10,06,1.60
2006,02,05,10,07,0.00
2006,02,05,10,08,1.60
2006,02,05,10,09,1.60
2006,02,05,10,10,0.00
2006,02,05,10,11,1.60
2006,02,05,10,12,1.60
2006,02,05,10,13,0.00
2006,02,05,10,14,0.00
2006,02,05,10,15,0.00
2006,02,05,10,16,0.00
2006,02,05,10,17,0.00
2006,02,05,10,18,0.00
2006,02,05,10,19,3.20
2006,02,05,10,20,3.20
2006,02,05,10,21,1.60
2006,02,05,10,22,1.60
2006,02,05,10,23,3.20
2006,02,05,10,24,3.20
2006,02,05,10,25,4.80
2006,02,05,10,26,3.20
2006,02,05,10,27,3.20
2006,02,05,10,28,3.20
2006,02,05,10,29,3.20
2006,02,05,10,30,3.20
2006,02,05,10,31,4.80
2006,02,05,10,32,4.80
2006,02,05,10,33,4.80
2006,02,05,10,34,6.40
2006,02,05,10,35,6.40
2006,02,05,10,36,6.40
2006,02,05,10,37,6.40
2006,02,05,10,38,4.80
2006,02,05,10,39,8.10
2006,02,05,10,40,9.60
2006,02,05,10,41,6.40
2006,02,05,10,42,8.10
2006,02,05,10,43,8.10
2006,02,05,10,44,6.40
2006,02,05,10,45,4.80
2006,02,05,10,46,4.80
2006,02,05,10,47,4.80
2006,02,05,10,48,3.20
2006,02,05,10,49,4.80
2006,02,05,10,50,4.80
2006,02,05,10,51,1.60
2006,02,05,10,52,3.20
2006,02,05,10,53,3.20
2006,02,05,10,54,6.40
2006,02,05,10,55,6.40
2006,02,05,10,56,9.60
2006,02,05,10,57,4.80
2006,02,05,10,58,3.20
2006,02,05,10,59,6.40
2006,02,05,11,00,9.60
2006,02,05,11,01,4.80
2006,02,05,11,02,8.10
2006,02,05,11,03,3.20
2006,02,05,11,04,4.80
2006,02,05,11,05,6.40
2006,02,05,11,06,4.80
2006,02,05,11,07,3.20
2006,02,05,11,08,1.60
2006,02,05,11,09,1.60
2006,02,05,11,10,1.60
2006,02,05,11,11,1.60
2006,02,05,11,12,3.20
2006,02,05,11,13,1.60
2006,02,05,11,14,1.60
2006,02,05,11,15,0.00
2006,02,05,11,16,1.60
2006,02,05,11,17,0.00
2006,02,05,11,18,1.60
2006,02,05,11,19,1.60
2006,02,05,11,20,3.20
2006,02,05,11,21,3.20
2006,02,05,11,22,3.20
2006,02,05,11,23,3.20
2006,02,05,11,24,3.20
2006,02,05,11,25,1.60
2006,02,05,11,26,0.00
2006,02,05,11,27,1.60
2006,02,05,11,28,1.60
2006,02,05,11,29,0.00
2006,02,05,11,30,1.60
2006,02,05,11,31,0.00
2006,02,05,11,32,0.00
2006,02,05,11,33,3.20
2006,02,05,11,34,1.60
2006,02,05,11,35,6.40
2006,02,05,11,36,6.40
2006,02,05,11,37,8.10
2006,02,05,11,38,3.20
2006,02,05,11,39,1.60
2006,02,05,11,40,4.80
2006,02,05,11,41,6.40
2006,02,05,11,42,6.40
2006,02,05,11,43,4.80
2006,02,05,11,44,1.60
2006,02,05,11,45,4.80
2006,02,05,11,46,3.20
2006,02,05,11,47,4.80
2006,02,05,11,48,3.20
2006,02,05,11,49,4.80
2006,02,05,11,50,4.80
2006,02,05,11,51,3.20
2006,02,05,11,52,3.20
2006,02,05,11,53,3.20
2006,02,05,11,54,3.20
2006,02,05,11,55,0.00
2006,02,05,11,56,1.60
2006,02,05,11,57,1.60
2006,02,05,11,58,4.80
2006,02,05,11,59,3.20
2006,02,05,12,00,4.80
2006,02,05,12,01,4.80
2006,02,05,12,02,4.80
2006,02,05,12,03,1.60
2006,02,05,12,04,4.80
2006,02,05,12,05,1.60
2006,02,05,12,06,0.00
2006,02,05,12,07,1.60
2006,02,05,12,08,3.20
2006,02,05,12,09,3.20
2006,02,05,12,10,4.80
2006,02,05,12,11,4.80
2006,02,05,12,12,4.80
2006,02,05,12,13,3.20
2006,02,05,12,14,3.20
2006,02,05,12,15,3.20
2006,02,05,12,16,3.20
2006,02,05,12,17,3.20
2006,02,05,12,18,3.20
2006,02,05,12,19,3.20
2006,02,05,12,20,4.80
2006,02,05,12,21,1.60
2006,02,05,12,22,3.20
2006,02,05,12,23,1.60
2006,02,05,12,24,1.60
2006,02,05,12,25,1.60
2006,02,05,12,26,1.60
2006,02,05,12,27,1.60
2006,02,05,12,28,1.60
2006,02,05,12,29,1.60
2006,02,05,12,30,1.60
2006,02,05,12,31,1.60
2006,02,05,12,32,1.60
2006,02,05,12,33,0.00
2006,02,05,12,34,0.00
2006,02,05,12,35,1.60
2006,02,05,12,36,0.00
2006,02,05,12,37,3.20
2006,02,05,12,38,1.60
2006,02,05,12,39,0.00
2006,02,05,12,40,0.00
2006,02,05,12,41,1.60
2006,02,05,12,42,1.60
2006,02,05,12,43,0.00
2006,02,05,12,44,0.00
2006,02,05,12,45,1.60
2006,02,05,12,46,1.60
2006,02,05,12,47,1.60
2006,02,05,12,48,4.80
2006,02,05,12,49,3.20
2006,02,05,12,50,3.20
2006,02,05,12,51,4.80
2006,02,05,12,52,0.00
2006,02,05,12,53,3.20
2006,02,05,12,54,1.60
2006,02,05,12,55,1.60
2006,02,05,12,56,3.20
2006,02,05,12,57,3.20
2006,02,05,12,58,1.60
2006,02,05,12,59,1.60
2006,02,05,13,00,3.20
2006,02,05,13,01,3.20
2006,02,05,13,02,3.20
2006,02,05,13,03,6.40
2006,02,05,13,04,4.80
2006,02,05,13,05,3.20
2006,02,05,13,06,3.20
2006,02,05,13,07,1.60
2006,02,05,13,08,1.60
2006,02,05,13,09,3.20
2006,02,05,13,10,4.80
2006,02,05,13,11,3.20
2006,02,05,13,12,1.60
2006,02,05,13,13,3.20
2006,02,05,13,14,3.20
2006,02,05,13,15,4.80
2006,02,05,13,16,4.80
2006,02,05,13,17,4.80
2006,02,05,13,18,4.80
2006,02,05,13,19,3.20
2006,02,05,13,20,4.80
2006,02,05,13,21,4.80
2006,02,05,13,22,4.80
2006,02,05,13,23,6.40
2006,02,05,13,24,3.20
2006,02,05,13,25,6.40
2006,02,05,13,26,3.20
2006,02,05,13,27,3.20
2006,02,05,13,28,3.20
2006,02,05,13,29,3.20
2006,02,05,13,30,1.60
2006,02,05,13,31,1.60
2006,02,05,13,32,3.20
2006,02,05,13,33,6.40
2006,02,05,13,34,3.20
2006,02,05,13,35,3.20
2006,02,05,13,36,3.20
2006,02,05,13,37,3.20
2006,02,05,13,38,4.80
2006,02,05,13,39,6.40
2006,02,05,13,40,3.20
2006,02,05,13,41,4.80
2006,02,05,13,42,4.80
2006,02,05,13,43,6.40
2006,02,05,13,44,6.40
2006,02,05,13,45,4.80
2006,02,05,13,46,3.20
2006,02,05,13,47,3.20
2006,02,05,13,48,4.80
2006,02,05,13,49,3.20
2006,02,05,13,50,8.10
2006,02,05,13,51,4.80
2006,02,05,13,52,4.80
2006,02,05,13,53,4.80
2006,02,05,13,54,6.40
2006,02,05,13,55,3.20
2006,02,05,13,56,4.80
2006,02,05,13,57,3.20
2006,02,05,13,58,3.20
2006,02,05,13,59,1.60
2006,02,05,14,00,1.60
2006,02,05,14,01,3.20
2006,02,05,14,02,4.80
2006,02,05,14,03,4.80
2006,02,05,14,04,4.80
2006,02,05,14,05,3.20
2006,02,05,14,06,3.20
2006,02,05,14,07,3.20
2006,02,05,14,08,6.40
2006,02,05,14,09,4.80
2006,02,05,14,10,4.80
2006,02,05,14,11,4.80
2006,02,05,14,12,1.60
2006,02,05,14,13,4.80
2006,02,05,14,14,6.40
2006,02,05,14,15,8.10
2006,02,05,14,16,8.10
2006,02,05,14,17,6.40
2006,02,05,14,18,6.40
2006,02,05,14,19,4.80
2006,02,05,14,20,4.80
2006,02,05,14,21,3.20
2006,02,05,14,22,4.80
2006,02,05,14,23,4.80
2006,02,05,14,24,8.10
2006,02,05,14,25,4.80
2006,02,05,14,26,3.20
2006,02,05,14,27,4.80
2006,02,05,14,28,4.80
2006,02,05,14,29,1.60
2006,02,05,14,30,1.60
2006,02,05,14,31,3.20
2006,02,05,14,32,3.20
2006,02,05,14,33,4.80
2006,02,05,14,34,4.80
2006,02,05,14,35,4.80
2006,02,05,14,36,3.20
2006,02,05,14,37,3.20
2006,02,05,14,38,1.60
2006,02,05,14,39,6.40
2006,02,05,14,40,6.40
2006,02,05,14,41,4.80
2006,02,05,14,42,3.20
2006,02,05,14,43,1.60
2006,02,05,14,44,6.40
2006,02,05,14,45,6.40
2006,02,05,14,46,4.80
2006,02,05,14,47,4.80
2006,02,05,14,48,3.20
2006,02,05,14,49,6.40
2006,02,05,14,50,3.20
2006,02,05,14,51,6.40
2006,02,05,14,52,3.20
2006,02,05,14,53,1.60
2006,02,05,14,54,4.80
2006,02,05,14,55,6.40
2006,02,05,14,56,3.20
2006,02,05,14,57,1.60
2006,02,05,14,58,1.60
2006,02,05,14,59,6.40
2006,02,05,15,00,6.40
2006,02,05,15,01,4.80
2006,02,05,15,02,4.80
2006,02,05,15,03,4.80
2006,02,05,15,04,3.20
2006,02,05,15,05,1.60
2006,02,05,15,06,4.80
2006,02,05,15,07,1.60
2006,02,05,15,08,1.60
2006,02,05,15,09,1.60
2006,02,05,15,10,1.60
2006,02,05,15,11,1.60
2006,02,05,15,12,1.60
2006,02,05,15,13,1.60
2006,02,05,15,14,3.20
2006,02,05,15,15,0.00
2006,02,05,15,16,0.00
2006,02,05,15,17,1.60
2006,02,05,15,18,4.80
2006,02,05,15,19,3.20
2006,02,05,15,20,1.60
2006,02,05,15,21,3.20
2006,02,05,15,22,3.20
2006,02,05,15,23,3.20
2006,02,05,15,24,3.20
2006,02,05,15,25,3.20
2006,02,05,15,26,3.20
2006,02,05,15,27,4.80
2006,02,05,15,28,3.20
2006,02,05,15,29,3.20
2006,02,05,15,30,4.80
2006,02,05,15,31,4.80
2006,02,05,15,32,4.80
2006,02,05,15,33,3.20
2006,02,05,15,34,3.20
2006,02,05,15,35,4.80
2006,02,05,15,36,4.80
2006,02,05,15,37,4.80
2006,02,05,15,38,6.40
2006,02,05,15,39,4.80
2006,02,05,15,40,3.20
2006,02,05,15,41,3.20
2006,02,05,15,42,3.20
2006,02,05,15,43,6.40
2006,02,05,15,44,6.40
2006,02,05,15,45,4.80
2006,02,05,15,46,14.50
2006,02,05,15,47,14.50
2006,02,05,15,48,17.70
2006,02,05,15,49,17.70
2006,02,05,15,50,17.70
2006,02,05,15,51,20.90
2006,02,05,15,52,19.30
2006,02,05,15,53,11.30
2006,02,05,15,54,17.70
2006,02,05,15,55,11.30
2006,02,05,15,56,9.60
2006,02,05,15,57,14.50
2006,02,05,15,58,9.60
2006,02,05,15,59,8.10
2006,02,05,16,00,9.60
2006,02,05,16,01,8.10
2006,02,05,16,02,8.10
2006,02,05,16,03,6.40
2006,02,05,16,04,8.10
2006,02,05,16,05,8.10
2006,02,05,16,06,4.80
2006,02,05,16,07,8.10
2006,02,05,16,08,9.60
2006,02,05,16,09,8.10
2006,02,05,16,10,9.60
2006,02,05,16,11,9.60
2006,02,05,16,12,3.20
2006,02,05,16,13,6.40
2006,02,05,16,14,8.10
2006,02,05,16,15,9.60
2006,02,05,16,16,6.40
2006,02,05,16,17,4.80
2006,02,05,16,18,11.30
2006,02,05,16,19,11.30
2006,02,05,16,20,11.30
2006,02,05,16,21,9.60
2006,02,05,16,22,6.40
2006,02,05,16,23,8.10
2006,02,05,16,24,6.40
2006,02,05,16,25,6.40
2006,02,05,16,26,8.10
2006,02,05,16,27,6.40
2006,02,05,16,28,9.60
2006,02,05,16,29,6.40
2006,02,05,16,30,3.20
2006,02,05,16,31,6.40
2006,02,05,16,32,8.10
2006,02,05,16,33,6.40
2006,02,05,16,34,8.10
2006,02,05,16,35,8.10
2006,02,05,16,36,11.30
2006,02,05,16,37,6.40
2006,02,05,16,38,8.10
2006,02,05,16,39,4.80
2006,02,05,16,40,4.80
2006,02,05,16,41,11.30
2006,02,05,16,42,8.10
2006,02,05,16,43,11.30
2006,02,05,16,44,6.40
2006,02,05,16,45,8.10
2006,02,05,16,46,3.20
2006,02,05,16,47,3.20
2006,02,05,16,48,1.60
2006,02,05,16,49,9.60
2006,02,05,16,50,8.10
2006,02,05,16,51,4.80
2006,02,05,16,52,9.60
2006,02,05,16,53,6.40
2006,02,05,16,54,4.80
2006,02,05,16,55,11.30
2006,02,05,16,56,9.60
2006,02,05,16,57,6.40
2006,02,05,16,58,6.40
2006,02,05,16,59,6.40
2006,02,05,17,00,6.40
2006,02,05,17,01,6.40
2006,02,05,17,02,8.10
2006,02,05,17,03,4.80
2006,02,05,17,04,8.10
2006,02,05,17,05,8.10
2006,02,05,17,06,9.60
2006,02,05,17,07,6.40
2006,02,05,17,08,4.80
2006,02,05,17,09,8.10
2006,02,05,17,10,3.20
2006,02,05,17,11,6.40
2006,02,05,17,12,6.40
2006,02,05,17,13,3.20
2006,02,05,17,14,1.60
2006,02,05,17,15,4.80
2006,02,05,17,16,3.20
2006,02,05,17,17,6.40
2006,02,05,17,18,6.40
2006,02,05,17,19,4.80
2006,02,05,17,20,1.60
2006,02,05,17,21,1.60
2006,02,05,17,22,1.60
2006,02,05,17,23,4.80
2006,02,05,17,24,3.20
2006,02,05,17,25,3.20
2006,02,05,17,26,1.60
2006,02,05,17,27,6.40
2006,02,05,17,28,3.20
2006,02,05,17,29,4.80
2006,02,05,17,30,3.20
2006,02,05,17,31,4.80
2006,02,05,17,32,6.40
2006,02,05,17,33,3.20
2006,02,05,17,34,6.40
2006,02,05,17,35,4.80
2006,02,05,17,36,3.20
2006,02,05,17,37,1.60
2006,02,05,17,38,1.60
2006,02,05,17,39,1.60
2006,02,05,17,40,4.80
2006,02,05,17,41,4.80
2006,02,05,17,42,3.20
2006,02,05,17,43,6.40
2006,02,05,17,44,4.80
2006,02,05,17,45,6.40
2006,02,05,17,46,8.10
2006,02,05,17,47,6.40
2006,02,05,17,48,6.40
2006,02,05,17,49,4.80
2006,02,05,17,50,8.10
2006,02,05,17,51,4.80